User: anonymous   Login
Location: Theydon Bois
(51.6750°N, 0.1050°E)
Time: 16:59:01
(UTC+00:00)
Language:

Cosmos 1833 Rocket - Orbit

View from above orbital plane
View from above orbital plane
View from above satellite
View from above satellite

Ground track
Ground track

The orbit data is extracted from the following two-line orbital elements,

1 17590U 87027B   17349.86927783 -.00000025 +00000-0 +11265-4 0  9997
2 17590 071.0022 127.3962 0004525 359.4614 000.6504 14.16750446589627
Epoch (UTC): 15 December 2017 20:51:45
Eccentricity: 0.0004525
inclination: 71.0022°
perigee height: 833 km
apogee height: 839 km
right ascension of ascending node: 127.3962°
argument of perigee: 359.4614°
revolutions per day: 14.16750446
mean anomaly at epoch: 0.6504°
orbit number at epoch: 58962

The dashed part of the orbit path shows where the satellite is in the earth's shadow,  

DLR